Location: Oshawa
(43.9000°N, 78.8670°W)
Time: 12:02:47
(UTC-04:00)

Explorer 7 - Visible Passes

Search period start: 24 March 2017 00:00
Search period end: 03 April 2017 00:00
Orbit: 486 x 684 km, 50.3° (Epoch: 22 March)

Date Brightness Start Highest point End Pass type
(mag) Time Alt. Az. Time Alt. Az. Time Alt. Az.
26 Mar 9.5 05:46:20 10° SSE 05:47:25 11° SE 05:48:31 10° ESE visible
27 Mar 8.9 05:50:20 10° S 05:53:07 19° SE 05:55:50 10° E visible
28 Mar 8.1 05:55:24 10° SSW 05:58:52 31° SE 06:02:14 10° ENE visible
29 Mar 7.3 06:01:16 12° SW 06:04:41 50° SE 06:08:21 10° ENE visible
30 Mar 9.1 04:30:44 15° SE 04:30:44 15° SE 04:32:39 10° E visible
30 Mar 6.7 06:07:07 13° SW 06:10:33 80° SSE 06:14:20 10° ENE visible
31 Mar 8.5 04:36:31 24° SE 04:36:31 24° SE 04:39:20 10° E visible
31 Mar 6.7 06:12:53 12° WSW 06:16:29 69° NNW 06:20:16 10° ENE visible
01 Apr 7.6 04:42:12 38° SE 04:42:12 38° SE 04:45:34 10° ENE visible
01 Apr 7.1 06:18:40 10° W 06:22:29 49° NNW 06:26:10 10° ENE visible
02 Apr 6.8 04:47:51 63° SE 04:47:51 63° SE 04:51:37 10° ENE visible
02 Apr 7.6 06:24:50 10° W 06:28:30 38° NNW 06:32:05 10° NE visible
